Oscoda, MI

10:53 AM EST on November 21, 2017 (GMT -0500)
Oscoda-Wurtsmith

Weather History for KOSC - December, 2013

Change the Weather History Date:

Sunday, December 15, 2013

  Actual Average Record
Temperature  
Mean Temperature 16 °F -  
Max Temperature 25 °F 33 °F 55 °F (1997)
Min Temperature 7 °F 20 °F 3 °F (2010)
Degree Days  
Heating Degree Days 49    
Moisture  
Dew Point 15 °F    
Average Humidity 84    
Maximum Humidity 93    
Minimum Humidity 60    
Precipitation  
Precipitation 0.00 in - - ()
Sea Level Pressure  
Sea Level Pressure 29.76 in    
Wind  
Wind Speed 7 mph (West)    
Max Wind Speed 21 mph    
Max Gust Speed 31 mph    
Visibility 6 miles    
Events Snow    
Averages and records for this station are not official NWS values.
T = Trace of Precipitation, MM = Missing Value Source: NWS Daily Summary

Daily Weather History Graph

Daily Weather History Graph

Search for Another Location

Airport or City:

Trip Planner

Search our weather history database for the weather conditions in past years. The results will help you decide how hot, cold, wet, or windy it might be!

Date:

Astronomy

Dec. 15, 2013 Rise Set
Actual Time 8:03 AM EST 4:54 PM EST
Civil Twilight 7:29 AM EST 5:27 PM EST
Nautical Twilight 6:52 AM EST 6:04 PM EST
Astronomical Twilight 6:17 AM EST 6:40 PM EST
Moon 4:00 PM EST (12/15) 6:15 AM EST (12/15)
Length of Visible Light 9h 58m
Length of Day
8h 51m
Waxing Gibbous, 97% of the Moon is Illuminated
Dec 15
Waxing Gibbous
Dec 17
Full
Dec 25
Last Quarter
Jan 1
New
Jan 7
First Quarter

Hourly Weather History & Observations

Time (EST) Temp. Windchill Dew Point Humidity Pressure Visibility Wind Dir Wind Speed Gust Speed Precip Events Conditions
12:13 AM 23.9 °F 18.0 °F 20.1 °F 85% 29.82 in 10.0 mi North 4.6 mph - N/A   Overcast
12:34 AM 24.6 °F 16.7 °F 19.8 °F 82% 29.81 in 10.0 mi NE 6.9 mph - N/A   Overcast
12:54 AM 24.4 °F 18.6 °F 20.1 °F 84% 29.80 in 10.0 mi NE 4.6 mph - N/A   Overcast
1:13 AM 24.1 °F 18.2 °F 20.3 °F 85% 29.79 in 10.0 mi NNW 4.6 mph - N/A   Overcast
1:34 AM 22.8 °F 15.5 °F 20.3 °F 90% 29.79 in 10.0 mi NW 5.8 mph - N/A Snow Light Snow
1:54 AM 22.5 °F 14.1 °F 20.3 °F 91% 29.79 in 10.0 mi WNW 6.9 mph - N/A   Overcast
2:14 AM 22.1 °F 13.7 °F 20.1 °F 92% 29.80 in 10.0 mi WNW 6.9 mph - N/A   Overcast
2:34 AM 22.1 °F 14.7 °F 19.8 °F 91% 29.79 in 10.0 mi NNW 5.8 mph - N/A Snow Light Snow
2:53 AM 22.1 °F 15.9 °F 19.9 °F 91% 29.78 in 7.0 mi NNW 4.6 mph - N/A Snow Light Snow
3:14 AM 22.5 °F 17.8 °F 20.3 °F 91% 29.78 in 4.0 mi WNW 3.5 mph - N/A Snow Light Snow
3:34 AM 22.3 °F 17.6 °F 20.3 °F 92% 29.77 in 5.0 mi West 3.5 mph - N/A Snow Light Snow
3:53 AM 22.5 °F - 20.3 °F 91% 29.77 in 7.0 mi Calm Calm - N/A Snow Light Snow
4:14 AM 22.6 °F 16.5 °F 20.5 °F 91% 29.77 in 5.0 mi WNW 4.6 mph - N/A Snow Light Snow
4:34 AM 22.5 °F 16.3 °F 20.3 °F 91% 29.76 in 7.0 mi NW 4.6 mph - N/A Snow Light Snow
4:53 AM 22.5 °F 15.1 °F 20.3 °F 91% 29.76 in 4.0 mi WNW 5.8 mph - N/A Snow Light Snow
5:14 AM 22.1 °F 13.7 °F 19.9 °F 91% 29.76 in 3.0 mi WNW 6.9 mph - N/A Snow Light Snow
5:34 AM 21.9 °F 12.5 °F 19.8 °F 91% 29.76 in 2.0 mi WNW 8.1 mph - N/A Snow Light Snow
5:53 AM 21.7 °F 15.5 °F 19.4 °F 91% 29.76 in 1.8 mi WNW 4.6 mph - N/A Snow Light Snow
6:14 AM 21.6 °F 15.3 °F 19.4 °F 91% 29.75 in 2.0 mi WNW 4.6 mph - N/A Snow Light Snow
6:34 AM 21.2 °F 16.4 °F 19.2 °F 92% 29.75 in 2.0 mi WNW 3.5 mph - N/A Snow Light Snow
6:53 AM 21.2 °F - 19.2 °F 92% 29.75 in 2.5 mi Calm Calm - N/A Snow Light Snow
7:14 AM 20.8 °F 16.0 °F 18.9 °F 92% 29.75 in 3.0 mi West 3.5 mph - N/A Snow Light Snow
7:34 AM 20.3 °F - 18.3 °F 92% 29.74 in 2.5 mi Calm Calm - N/A Snow Light Snow
7:53 AM 19.9 °F 14.9 °F 18.1 °F 93% 29.74 in 3.0 mi West 3.5 mph - N/A Snow Light Snow
8:14 AM 19.4 °F 12.8 °F 17.6 °F 93% 29.73 in 4.0 mi WSW 4.6 mph - N/A Snow Light Snow
8:33 AM 19.2 °F 14.1 °F 17.4 °F 93% 29.73 in 1.5 mi WSW 3.5 mph - N/A Snow Light Snow
8:53 AM 19.4 °F 14.3 °F 17.6 °F 93% 29.73 in 1.8 mi WSW 3.5 mph - N/A Snow Light Snow
9:14 AM 19.9 °F 13.4 °F 18.3 °F 93% 29.73 in 2.0 mi SW 4.6 mph - N/A Snow Light Snow
9:33 AM 20.3 °F 12.5 °F 18.5 °F 93% 29.72 in 1.2 mi WSW 5.8 mph - N/A Snow Light Snow
9:53 AM 20.8 °F 14.4 °F 19.0 °F 93% 29.72 in 0.8 mi WSW 4.6 mph - N/A Snow Light Snow
10:14 AM 21.6 °F 12.1 °F 19.4 °F 91% 29.71 in 1.2 mi SW 8.1 mph - N/A Snow Light Snow
10:33 AM 21.9 °F 12.5 °F 19.4 °F 90% 29.71 in 1.5 mi SW 8.1 mph - N/A Snow Light Snow
10:53 AM 21.9 °F 11.7 °F 19.2 °F 89% 29.70 in 1.2 mi SW 9.2 mph - N/A Snow Light Snow
11:14 AM 22.1 °F 10.6 °F 18.9 °F 87% 29.70 in 2.5 mi WSW 11.5 mph - N/A Snow Light Snow
11:33 AM 22.1 °F 10.0 °F 18.5 °F 86% 29.69 in 3.0 mi WSW 12.7 mph - N/A Snow Light Snow
11:53 AM 23.0 °F 12.4 °F 18.7 °F 84% 29.68 in 7.0 mi WSW 10.4 mph - N/A   Overcast
12:14 PM 23.5 °F 12.4 °F 18.5 °F 81% 29.68 in 10.0 mi West 11.5 mph - N/A   Overcast
12:33 PM 23.9 °F 12.3 °F 18.5 °F 80% 29.67 in 10.0 mi West 12.7 mph 20.7 mph N/A   Overcast
12:53 PM 24.4 °F 13.5 °F 19.0 °F 80% 29.67 in 4.0 mi West 11.5 mph - N/A Snow Light Snow
1:14 PM 24.8 °F 12.9 °F 16.7 °F 71% 29.66 in 10.0 mi West 13.8 mph 20.7 mph N/A   Overcast
1:33 PM 25.2 °F 12.9 °F 17.6 °F 73% 29.66 in 7.0 mi West 15.0 mph 24.2 mph N/A   Overcast
1:54 PM 24.4 °F 10.6 °F 15.8 °F 70% 29.66 in 5.0 mi West 18.4 mph 26.5 mph N/A   Haze
2:14 PM 25.2 °F 13.3 °F 16.2 °F 69% 29.67 in 5.0 mi West 13.8 mph 21.9 mph N/A Snow Light Snow
2:33 PM 23.9 °F 10.3 °F 13.3 °F 64% 29.67 in 5.0 mi West 17.3 mph 29.9 mph N/A   Haze
2:54 PM 23.2 °F 8.2 °F 11.7 °F 61% 29.68 in 4.0 mi West 20.7 mph 29.9 mph N/A   Haze
3:14 PM 23.5 °F 10.8 °F 12.4 °F 62% 29.69 in 1.0 mi West 15.0 mph 31.1 mph N/A Snow Light Snow
3:33 PM 22.3 °F 7.8 °F 10.2 °F 60% 29.70 in 7.0 mi West 18.4 mph 25.3 mph N/A   Mostly Cloudy
3:54 PM 21.4 °F 7.5 °F 10.4 °F 63% 29.72 in 10.0 mi West 16.1 mph 24.2 mph N/A   Mostly Cloudy
4:14 PM 21.0 °F 6.2 °F 10.6 °F 64% 29.73 in 10.0 mi West 18.4 mph 24.2 mph N/A   Mostly Cloudy
4:33 PM 20.7 °F 6.6 °F 10.4 °F 65% 29.74 in 10.0 mi West 16.1 mph - N/A   Mostly Cloudy
4:54 PM 19.9 °F 7.9 °F 10.4 °F 67% 29.75 in 10.0 mi West 11.5 mph 20.7 mph N/A   Mostly Cloudy
5:14 PM 20.1 °F 7.5 °F 11.5 °F 69% 29.75 in 10.0 mi West 12.7 mph - N/A   Overcast
5:33 PM 18.3 °F 6.6 °F 10.4 °F 71% 29.76 in 10.0 mi West 10.4 mph 13.8 mph N/A   Overcast
5:54 PM 18.3 °F 3.6 °F 11.8 °F 76% 29.77 in 10.0 mi West 16.1 mph 21.9 mph N/A   Overcast
6:14 PM 17.6 °F 4.3 °F 12.2 °F 79% 29.78 in 10.0 mi West 12.7 mph - N/A   Overcast
6:33 PM 18.0 °F 3.6 °F 13.1 °F 81% 29.79 in 7.0 mi West 15.0 mph 19.6 mph N/A Snow Light Snow
6:54 PM 18.5 °F 3.8 °F 14.4 °F 84% 29.81 in 4.0 mi West 16.1 mph - N/A Snow Light Snow
7:14 PM 18.5 °F 4.9 °F 14.4 °F 84% 29.82 in 3.0 mi West 13.8 mph 20.7 mph N/A Snow Light Snow
7:33 PM 18.0 °F 4.2 °F 13.5 °F 83% 29.82 in 5.0 mi West 13.8 mph 20.7 mph N/A   Haze
7:54 PM 17.6 °F 5.0 °F 13.1 °F 83% 29.83 in 5.0 mi West 11.5 mph - N/A   Overcast
8:14 PM 16.7 °F 4.5 °F 12.0 °F 82% 29.84 in 10.0 mi West 10.4 mph - N/A   Overcast
8:33 PM 14.5 °F 2.7 °F 10.6 °F 84% 29.85 in 10.0 mi WSW 9.2 mph - N/A   Scattered Clouds
8:54 PM 12.0 °F 0.5 °F 8.8 °F 87% 29.85 in 10.0 mi West 8.1 mph - N/A   Clear
9:14 PM 12.0 °F 2.7 °F 9.1 °F 88% 29.85 in 10.0 mi WSW 5.8 mph - N/A   Clear
9:33 PM 9.9 °F 1.6 °F 7.5 °F 90% 29.85 in 10.0 mi West 4.6 mph - N/A   Scattered Clouds
9:54 PM 9.3 °F 2.8 °F 7.3 °F 92% 29.86 in 10.0 mi West 3.5 mph - N/A   Scattered Clouds
10:14 PM 9.3 °F -0.5 °F 7.2 °F 91% 29.87 in 10.0 mi West 5.8 mph - N/A   Clear
10:33 PM 7.5 °F -2.6 °F 5.2 °F 90% 29.88 in 10.0 mi West 5.8 mph - N/A   Clear
10:54 PM 7.3 °F -4.1 °F 4.8 °F 89% 29.88 in 10.0 mi WSW 6.9 mph - N/A   Clear
11:13 PM 7.7 °F -3.7 °F 5.4 °F 90% 29.89 in 10.0 mi SW 6.9 mph - N/A   Clear
11:34 PM 8.4 °F -0.1 °F 5.9 °F 89% 29.89 in 10.0 mi SW 4.6 mph - N/A   Scattered Clouds
11:54 PM 7.0 °F -1.7 °F 5.0 °F 92% 29.90 in 10.0 mi WSW 4.6 mph - N/A   Mostly Cloudy